Location: Chuathbaluk
(61.5726°N, 159.2454°W)
Time: 04:21:06
(UTC+00:00)

Transit 4A - Pass Details

Date: 29 November 2020
Orbit: 864 x 980 km, 66.8° (Epoch: 26 January)

Event Time Altitude Azimuth Distance (km) Brightness Sun altitude
Rises 23:33:02 0° 288° (WNW) 3,689 11.0 5.7°
Reaches altitude 10° 23:35:40 10° 292° (WNW) 2,743 10.3 5.6°
Maximum altitude 23:42:01 57° 11° (NNE) 1,142 8.2 5.3°
Drops below altitude 10° 23:48:17 10° 91° (E) 2,713 10.2 5.1°
Sets 23:50:53 0° 95° (E) 3,646 10.8 5.0°
